Flag for Brazil Weather past 2 weeks in Volta Redonda, Rio de Janeiro, Brazil

Now
75 °F

Sunny.


Feels Like: 77 °F
Forecast: 55 / 76 °F
Wind: 6 mph from Northeast

Location: Galeao

Current Time: May 23, 2015 at 12:06:24 PM

Latest Report: May 23, 2015 at 11:00 AM


Visibility: 10 mi

Pressure: 30.12 "Hg

Humidity: 61%

Dew point: 61 °F

Location of Volta RedondaLocation

Historic Weather in Volta Redonda — Graph

°F

Volta Redonda temperature yesterday

Maximum temperature yesterday: 82 °F (at 3:00 PM)
Minimum temperature yesterday: 66 °F (at 2:00 AM)
Average temperature yesterday: 73 °F

Past Weeks' High & Low Weather Summary

 TemperatureHumidityPressure
High86 °F (May 11, 1:00 PM)94% (May 9, 1:00 AM)30.27 "Hg (May 9, 1:00 AM)
Low61 °F (May 9, 6:00 AM)45% (May 10, 2:00 PM)29.77 "Hg (May 11, 3:00 AM)
Average72 °F78%30.12 "Hg
* Reported May 8 11:00 AM — May 23 11:00 AM, Volta Redonda, Weather by CustomWeather, © 2015

Note: Actual official high and low records may vary slightly from our data, if they occured in-between our weather recording intervals... More about our weather records

Advertising

Volta Redonda weather history for previous 24 hours

 ConditionsComfort  
Time TempWeatherWind HumidityBarometerVisibility
11:00 AM
Sat, May 23
75 °FSunny.6 mph61%30.12 "Hg10 mi
10:00 AM75 °FSunny.3 mph65%30.15 "Hg10 mi
9:00 AM72 °FSunny.5 mph73%30.15 "Hg10 mi
8:00 AM72 °FSunny.No wind78%30.15 "Hg10 mi
7:00 AM66 °FSunny.3 mph88%30.12 "Hg10 mi
6:00 AM64 °FSunny.3 mph88%30.12 "Hg10 mi
5:00 AM64 °FClear.No wind88%30.12 "Hg10 mi
4:00 AM64 °FClear.2 mph88%30.12 "Hg10 mi
3:00 AM64 °FClear.No wind88%30.12 "Hg10 mi
2:00 AM66 °FClear.No wind83%30.12 "Hg10 mi
1:00 AM68 °FClear.3 mph78%30.12 "Hg10 mi
12:00 AM68 °FClear.6 mph83%30.12 "Hg10 mi
11:00 PM
Fri, May 22
70 °FClear.6 mph78%30.15 "Hg10 mi
10:00 PM70 °FClear.5 mph78%30.15 "Hg10 mi
9:00 PM72 °FClear.No wind73%30.15 "Hg10 mi
8:00 PM72 °FClear.5 mph73%30.15 "Hg10 mi
7:00 PM73 °FClear.8 mph74%30.15 "Hg10 mi
6:00 PM75 °FClear.3 mph69%30.12 "Hg10 mi
5:00 PM79 °FPassing clouds.3 mph61%30.12 "HgN/A
4:00 PM81 °FPassing clouds.9 mph54%30.12 "HgN/A
3:00 PM82 °FPassing clouds.5 mph55%30.12 "HgN/A
2:00 PM81 °FPassing clouds.8 mph54%30.15 "HgN/A
1:00 PM79 °FPassing clouds.8 mph58%30.18 "HgN/A
12:00 PM81 °FPassing clouds.3 mph54%30.18 "HgN/A
Weather by CustomWeather, © 2015

See weather overviewHow to use our weather pages